Time,TemperatureF,DewpointF,PressureIn,WindDirection,WindDirectionDegrees,WindSpeedMPH,WindSpeedGustMPH,Humidity,HourlyPrecipIn,Conditions,Clouds,dailyrainin,SoftwareType,DateUTC
2013-02-13 00:00:00,25.0,-99.9,-100.00,SW,227,6.0,8.0,-999,-99.99,,,-99.99,,2013-02-13 07:00:00,
2013-02-13 00:52:00,25.0,-99.9,-100.00,SW,227,6.0,8.0,-999,-99.99,,,-99.99,,2013-02-13 07:52:00,
2013-02-13 01:00:00,23.0,-99.9,-100.00,NNW,340,12.0,14.0,-999,-99.99,,,-99.99,,2013-02-13 08:00:00,
2013-02-13 01:52:00,23.0,-99.9,-100.00,NNW,340,12.0,14.0,-999,-99.99,,,-99.99,,2013-02-13 08:52:00,
2013-02-13 02:00:00,25.0,-99.9,-100.00,West,262,6.0,7.0,-999,-99.99,,,-99.99,,2013-02-13 09:00:00,
2013-02-13 02:52:00,25.0,-99.9,-100.00,West,262,6.0,7.0,-999,-99.99,,,-99.99,,2013-02-13 09:52:00,
2013-02-13 03:00:00,25.0,-99.9,-100.00,WNW,284,9.0,11.0,-999,-99.99,,,-99.99,,2013-02-13 10:00:00,
2013-02-13 03:52:00,25.0,-99.9,-100.00,WNW,284,9.0,11.0,-999,-99.99,,,-99.99,,2013-02-13 10:52:00,
2013-02-13 04:00:00,23.0,-99.9,-100.00,WNW,292,8.0,8.0,-999,-99.99,,,-99.99,,2013-02-13 11:00:00,
2013-02-13 04:52:00,23.0,-99.9,-100.00,WNW,292,8.0,8.0,-999,-99.99,,,-99.99,,2013-02-13 11:52:00,
2013-02-13 05:00:00,22.0,-99.9,-100.00,WNW,287,5.0,6.0,-999,-99.99,,,-99.99,,2013-02-13 12:00:00,
2013-02-13 05:52:00,22.0,-99.9,-100.00,WNW,287,5.0,6.0,-999,-99.99,,,-99.99,,2013-02-13 12:52:00,
2013-02-13 06:00:00,22.0,-99.9,-100.00,NW,311,7.0,9.0,-999,-99.99,,,-99.99,,2013-02-13 13:00:00,
2013-02-13 06:52:00,22.0,-99.9,-100.00,NW,311,7.0,9.0,-999,-99.99,,,-99.99,,2013-02-13 13:52:00,
2013-02-13 07:00:00,20.0,-99.9,-100.00,West,259,3.0,5.0,-999,-99.99,,,-99.99,,2013-02-13 14:00:00,
2013-02-13 07:52:00,20.0,-99.9,-100.00,West,259,3.0,5.0,-999,-99.99,,,-99.99,,2013-02-13 14:52:00,
2013-02-13 08:00:00,25.0,-99.9,-100.00,NW,315,12.0,13.0,-999,-99.99,,,-99.99,,2013-02-13 15:00:00,
2013-02-13 08:52:00,25.0,-99.9,-100.00,NW,315,12.0,13.0,-999,-99.99,,,-99.99,,2013-02-13 15:52:00,
2013-02-13 09:00:00,32.0,-99.9,-100.00,NW,317,16.0,23.0,-999,-99.99,,,-99.99,,2013-02-13 16:00:00,
2013-02-13 09:52:00,32.0,-99.9,-100.00,NW,317,16.0,23.0,-999,-99.99,,,-99.99,,2013-02-13 16:52:00,
2013-02-13 10:00:00,39.0,-99.9,-100.00,NW,317,18.0,23.0,-999,-99.99,,,-99.99,,2013-02-13 17:00:00,
2013-02-13 10:52:00,39.0,-99.9,-100.00,NW,317,18.0,23.0,-999,-99.99,,,-99.99,,2013-02-13 17:52:00,
2013-02-13 11:00:00,42.0,-99.9,-100.00,NW,318,23.0,27.0,-999,-99.99,,,-99.99,,2013-02-13 18:00:00,
2013-02-13 11:52:00,42.0,-99.9,-100.00,NW,318,23.0,27.0,-999,-99.99,,,-99.99,,2013-02-13 18:52:00,
2013-02-13 12:00:00,44.0,-99.9,-100.00,NW,326,19.0,24.0,-999,-99.99,,,-99.99,,2013-02-13 19:00:00,
2013-02-13 12:52:00,44.0,-99.9,-100.00,NW,326,19.0,24.0,-999,-99.99,,,-99.99,,2013-02-13 19:52:00,
2013-02-13 13:00:00,44.0,-99.9,-100.00,NW,321,18.0,21.0,-999,-99.99,,,-99.99,,2013-02-13 20:00:00,
2013-02-13 13:52:00,44.0,-99.9,-100.00,NW,321,18.0,21.0,-999,-99.99,,,-99.99,,2013-02-13 20:52:00,
2013-02-13 14:00:00,46.0,-99.9,-100.00,NW,315,13.0,19.0,-999,-99.99,,,-99.99,,2013-02-13 21:00:00,
2013-02-13 14:52:00,46.0,-99.9,-100.00,NW,315,13.0,19.0,-999,-99.99,,,-99.99,,2013-02-13 21:52:00,
2013-02-13 15:00:00,48.0,-99.9,-100.00,NW,318,12.0,14.0,-999,-99.99,,,-99.99,,2013-02-13 22:00:00,
2013-02-13 15:52:00,48.0,-99.9,-100.00,NW,318,12.0,14.0,-999,-99.99,,,-99.99,,2013-02-13 22:52:00,
2013-02-13 16:00:00,48.0,-99.9,-100.00,NW,316,13.0,19.0,-999,-99.99,,,-99.99,,2013-02-13 23:00:00,
2013-02-13 16:53:00,48.0,-99.9,-100.00,NW,316,13.0,19.0,-999,-99.99,,,-99.99,,2013-02-13 23:53:00,
2013-02-13 17:00:00,44.0,-99.9,-100.00,NW,309,13.0,17.0,-999,-99.99,,,-99.99,,2013-02-14 00:00:00,
2013-02-13 17:52:00,44.0,-99.9,-100.00,NW,309,13.0,17.0,-999,-99.99,,,-99.99,,2013-02-14 00:52:00,
2013-02-13 18:00:00,41.0,-99.9,-100.00,NW,315,14.0,16.0,-999,-99.99,,,-99.99,,2013-02-14 01:00:00,
2013-02-13 18:52:00,41.0,-99.9,-100.00,NW,315,14.0,16.0,-999,-99.99,,,-99.99,,2013-02-14 01:52:00,
2013-02-13 19:00:00,37.0,-99.9,-100.00,NNW,340,12.0,14.0,-999,-99.99,,,-99.99,,2013-02-14 02:00:00,
2013-02-13 20:00:00,37.0,-99.9,-100.00,NNW,346,16.0,22.0,-999,-99.99,,,-99.99,,2013-02-14 03:00:00,
2013-02-13 20:52:00,37.0,-99.9,-100.00,NNW,346,16.0,22.0,-999,-99.99,,,-99.99,,2013-02-14 03:52:00,
2013-02-13 21:00:00,37.0,-99.9,-100.00,NNW,340,17.0,19.0,-999,-99.99,,,-99.99,,2013-02-14 04:00:00,
2013-02-13 21:52:00,37.0,-99.9,-100.00,NNW,340,17.0,19.0,-999,-99.99,,,-99.99,,2013-02-14 04:52:00,
2013-02-13 22:00:00,35.0,-99.9,-100.00,NNW,339,11.0,15.0,-999,-99.99,,,-99.99,,2013-02-14 05:00:00,
2013-02-13 22:52:00,35.0,-99.9,-100.00,NNW,339,11.0,15.0,-999,-99.99,,,-99.99,,2013-02-14 05:52:00,
2013-02-13 23:00:00,33.0,-99.9,-100.00,WNW,298,9.0,12.0,-999,-99.99,,,-99.99,,2013-02-14 06:00:00,
2013-02-13 23:52:00,33.0,-99.9,-100.00,WNW,298,9.0,12.0,-999,-99.99,,,-99.99,,2013-02-14 06:52:00,